KF6ILA Weather Reports


Display with metric or nautical units.
time (UTC)temp
F
wind
direction
speed
MPH
gust
MPH
rain 1hr
in
rain 24hr
in
rain mn
in
humidity
%
barometer
mb
20260902181833 73 272 18.0 27.0 0.00 0.00 0.00 21 1017.2
20260902180839 72 263 16.0 28.0 0.00 0.00 0.00 22 1017.3
20260902180342 72 262 16.0 27.0 0.00 0.00 0.00 22 1017.3
20260902175348 72 275 18.0 29.0 0.00 0.00 0.00 22 1017.2
20260902174852 72 264 16.0 29.0 0.00 0.00 0.00 22 1017.2
20260902174354 71 265 18.0 27.0 0.00 0.00 0.00 21 1017.2
20260902173858 71 271 21.0 27.0 0.00 0.00 0.00 21 1017.1
20260902173400 71 263 18.0 27.0 0.00 0.00 0.00 21 1017.2
20260902172903 71 269 19.0 29.0 0.00 0.00 0.00 21 1017.0
20260902172406 71 269 20.0 29.0 0.00 0.00 0.00 20 1017.1
20260902170916 70 272 18.0 29.0 0.00 0.00 0.00 41 1016.8
20260902170418 70 272 17.0 29.0 0.00 0.00 0.00 21 1016.9
20260902165424 70 265 20.0 29.0 0.00 0.00 0.00 21 1017.0
20260902164928 69 273 18.0 34.0 0.00 0.00 0.00 22 1016.8
20260902164430 69 270 20.0 34.0 0.00 0.00 0.00 22 1016.7
20260902162940 69 266 19.0 27.0 0.00 0.00 0.00 22 1016.8
20260902161946 68 264 18.0 26.0 0.00 0.00 0.00 22 1016.8
20260902161448 68 266 16.0 26.0 0.00 0.00 0.00 23 1016.8
20260902160952 68 272 17.0 24.0 0.00 0.00 0.00 23 1016.6
20260902160454 68 271 15.0 23.0 0.00 0.00 0.00 23 1016.7
20260902155958 68 270 15.0 22.0 0.00 0.00 0.00 23 1016.7
20260902155501 68 262 13.0 22.0 0.00 0.00 0.00 23 1016.6
20260902153513 66 260 15.0 24.0 0.00 0.00 0.00 24 1016.6
20260902153016 66 257 17.0 24.0 0.00 0.00 0.00 24 1016.4
20260902152022 65 255 16.0 26.0 0.00 0.00 0.00 24 1016.2
20260902151525 65 256 15.0 26.0 0.00 0.00 0.00 24 1016.3
20260902151028 65 260 16.0 26.0 0.00 0.00 0.00 25 1016.2
20260902150531 65 257 15.0 23.0 0.00 0.00 0.00 25 1016.1
20260902150034 64 254 16.0 24.0 0.00 0.00 0.00 25 1016.2
20260902145537 64 260 16.0 24.0 0.00 0.00 0.00 25 1016.1
20260902145040 64 255 15.0 23.0 0.00 0.00 0.00 26 1016.2
20260902144543 63 257 16.0 23.0 0.00 0.00 0.00 25 1016.2
20260902143549 63 260 16.0 24.0 0.00 0.00 0.00 25 1016.2
20260902142555 63 256 15.0 24.0 0.00 0.00 0.00 26 1016.2
20260902142058 62 257 15.0 24.0 0.00 0.00 0.00 26 1016.3
20260902141104 62 258 16.0 24.0 0.00 0.00 0.00 26 1016.2
20260902140607 62 258 17.0 23.0 0.00 0.00 0.00 26 1016.2
20260902135613 62 255 17.0 27.0 0.00 0.00 0.00 26 1015.9
20260902135116 62 255 17.0 27.0 0.00 0.00 0.00 26 1016.0
20260902134619 62 256 16.0 24.0 0.00 0.00 0.00 26 1016.0
20260902134122 62 256 18.0 24.0 0.00 0.00 0.00 26 1015.9
20260902133625 62 257 18.0 24.0 0.00 0.00 0.00 26 1015.8
20260902133128 62 254 18.0 24.0 0.00 0.00 0.00 27 1015.8
20260902132631 62 253 17.0 24.0 0.00 0.00 0.00 27 1015.7
20260902132134 62 250 16.0 24.0 0.00 0.00 0.00 27 1015.6
20260902131637 62 254 16.0 23.0 0.00 0.00 0.00 27 1015.5
20260902131140 62 248 16.0 24.0 0.00 0.00 0.00 27 1015.6
20260902125650 62 255 18.0 27.0 0.00 0.00 0.00 27 1015.3
20260902124158 62 257 18.0 25.0 0.00 0.00 0.00 27 1015.4
20260902123702 62 263 20.0 26.0 0.00 0.00 0.00 27 1015.4
20260902123204 63 256 18.0 26.0 0.00 0.00 0.00 27 1015.4
20260902122707 62 260 17.0 24.0 0.00 0.00 0.00 26 1015.4
20260902122210 63 256 18.0 24.0 0.00 0.00 0.00 27 1015.4
20260902121216 63 257 20.0 25.0 0.00 0.00 0.00 27 1015.4
20260902120719 63 256 17.0 25.0 0.00 0.00 0.00 27 1015.4
20260902115725 63 257 19.0 26.0 0.00 0.00 0.00 26 1015.5
20260902112246 62 255 19.0 25.0 0.00 0.00 0.00 28 1015.4
20260902111749 62 251 16.0 24.0 0.00 0.00 0.00 28 1015.5
20260902111252 62 250 18.0 26.0 0.00 0.00 0.00 28 1015.6
20260902110755 62 250 18.0 26.0 0.00 0.00 0.00 28 1015.5
20260902110258 62 253 19.0 25.0 0.00 0.00 0.00 28 1015.4
20260902105801 62 248 18.0 24.0 0.00 0.00 0.00 28 1015.6
20260902105306 62 259 19.0 25.0 0.00 0.00 0.00 28 1015.5
20260902104807 62 255 19.0 25.0 0.00 0.00 0.00 28 1015.6
20260902104310 62 257 21.0 26.0 0.00 0.00 0.00 28 1015.6
20260902103813 62 261 21.0 26.0 0.00 0.00 0.00 28 1015.6
20260902103316 62 260 19.0 26.0 0.00 0.00 0.00 28 1015.6
20260902102819 62 259 19.0 28.0 0.00 0.00 0.00 28 1015.7
20260902102322 62 258 21.0 28.0 0.00 0.00 0.00 28 1015.7
20260902101825 62 259 20.0 26.0 0.00 0.00 0.00 28 1015.8
20260902101328 62 257 19.0 26.0 0.00 0.00 0.00 28 1015.8
20260902100831 62 251 19.0 26.0 0.00 0.00 0.00 28 1015.8
20260902100334 62 258 19.0 25.0 0.00 0.00 0.00 28 1015.8
20260902095837 62 253 18.0 26.0 0.00 0.00 0.00 28 1015.8
20260902094843 62 258 19.0 27.0 0.00 0.00 0.00 28 1015.8
20260902094346 62 259 19.0 28.0 0.00 0.00 0.00 28 1015.9
20260902093849 62 261 20.0 28.0 0.00 0.00 0.00 28 1015.8
20260902093352 62 259 20.0 26.0 0.00 0.00 0.00 28 1015.8
20260902092358 62 260 19.0 27.0 0.00 0.00 0.00 28 1015.9
20260902091404 62 255 19.0 26.0 0.00 0.00 0.00 28 1016.0
20260902090907 62 255 17.0 26.0 0.00 0.00 0.00 28 1015.9
20260902090410 62 256 16.0 25.0 0.00 0.00 0.00 28 1016.1
20260902085416 62 255 17.0 25.0 0.00 0.00 0.00 28 1016.3
20260902084919 62 258 19.0 24.0 0.00 0.00 0.00 28 1016.2
20260902083428 62 260 17.0 24.0 0.00 0.00 0.00 28 1016.1
20260902082931 62 257 17.0 24.0 0.00 0.00 0.00 27 1016.2
20260902082434 61 251 17.0 24.0 0.00 0.00 0.00 27 1016.1
20260902081937 0 255 19.0 24.0 0.00 0.00 0.00 27 1016.2
20260902081440 61 256 18.0 24.0 0.00 0.00 0.00 27 1016.2
20260902080943 61 256 17.0 24.0 0.00 0.00 0.00 27 1016.2
20260902080446 61 258 17.0 25.0 0.00 0.00 0.00 27 1016.2
20260902075949 61 256 16.0 26.0 0.00 0.00 0.00 26 1016.1
20260902075452 61 255 19.0 26.0 0.00 0.00 0.00 26 1016.1
20260902074458 61 257 18.0 24.0 0.00 0.00 0.00 26 1016.2
20260902074001 61 259 18.0 24.0 0.00 0.00 0.00 27 1016.2
20260902072510 61 254 16.0 24.0 0.00 0.00 0.00 29 1016.0
20260902072013 61 259 17.0 24.0 0.00 0.00 0.00 29 1016.0
20260902071516 61 258 18.0 24.0 0.00 0.00 0.00 30 1015.8
20260902070025 61 261 17.0 24.0 0.00 0.00 0.00 33 1015.8
20260902065528 61 261 17.0 23.0 0.00 0.00 0.00 33 1016.6
20260902065031 61 260 15.0 23.0 0.00 0.00 0.00 33 1016.6
20260902064534 61 263 16.0 24.0 0.00 0.00 0.00 34 1016.6
20260902064037 61 262 17.0 24.0 0.00 0.00 0.00 34 1016.7
20260902063540 61 261 17.0 25.0 0.00 0.00 0.00 35 1016.6
20260902062049 61 265 17.0 24.0 0.00 0.00 0.00 35 1016.7
20260902061552 61 262 18.0 24.0 0.00 0.00 0.00 35 1016.6
20260902061055 62 262 17.0 24.0 0.00 0.00 0.00 34 1016.4
20260902060558 62 252 17.0 23.0 0.00 0.00 0.00 34 1016.5
20260902060101 61 261 17.0 23.0 0.00 0.00 0.00 34 1016.5
20260902055604 62 256 18.0 24.0 0.00 0.00 0.00 34 1016.5
20260902055107 62 259 18.0 24.0 0.00 0.00 0.00 33 1016.4
20260902054610 62 262 16.0 24.0 0.00 0.00 0.00 32 1016.4
20260902053119 62 256 16.0 26.0 0.00 0.00 0.00 31 1016.4
20260902052622 62 255 18.0 24.0 0.00 0.00 0.00 32 1016.4
20260902052125 62 258 15.0 24.0 0.00 0.00 0.00 31 1016.4
20260902051628 62 259 16.0 24.0 0.00 0.00 0.00 31 1016.4
20260902051131 61 258 18.0 24.0 0.00 0.00 0.00 32 1016.4
20260902050137 61 253 15.0 22.0 0.00 0.00 0.00 33 1016.5
20260902045640 61 255 16.0 22.0 0.00 0.00 0.00 34 1016.4
20260902044646 60 249 15.0 21.0 0.00 0.00 0.00 40 1016.4
20260902044149 60 248 14.0 20.0 0.00 0.00 0.00 45 1016.4
20260902043652 60 249 14.0 20.0 0.00 0.00 0.00 49 1016.4
20260902043155 60 249 15.0 20.0 0.00 0.00 0.00 53 1016.3
20260902042201 60 249 13.0 20.0 0.00 0.00 0.00 54 1016.0
20260902040213 59 264 13.0 18.0 0.00 0.00 0.00 66 1015.8
20260902035716 59 263 12.0 18.0 0.00 0.00 0.00 68 1015.7
20260902035219 59 261 13.0 20.0 0.00 0.00 0.00 67 1015.7
20260902034722 60 253 15.0 21.0 0.00 0.00 0.00 67 1015.6
20260902034225 60 254 14.0 21.0 0.00 0.00 0.00 67 1015.4
20260902033728 60 257 13.0 18.0 0.00 0.00 0.00 67 1015.3
20260902032734 60 257 15.0 23.0 0.00 0.00 0.00 64 1015.3
20260902032237 61 260 14.0 22.0 0.00 0.00 0.00 63 1015.2
20260902031740 61 263 15.0 23.0 0.00 0.00 0.00 63 1015.2
20260902030746 61 262 15.0 23.0 0.00 0.00 0.00 61 1015.1
20260902025752 62 263 15.0 21.0 0.00 0.00 0.00 60 1015.1
20260902025255 62 258 14.0 21.0 0.00 0.00 0.00 59 1015.1
20260902024758 62 262 15.0 20.0 0.00 0.00 0.00 58 1015.0
20260902023804 63 261 14.0 22.0 0.00 0.00 0.00 55 1015.0
20260902022810 64 260 15.0 24.0 0.00 0.00 0.00 53 1014.8
20260902022313 64 269 18.0 24.0 0.00 0.00 0.00 52 1014.9
20260902021816 65 265 18.0 24.0 0.00 0.00 0.00 52 1014.7
20260902020325 66 264 18.0 25.0 0.00 0.00 0.00 51 1014.7
20260902015828 66 261 14.0 24.0 0.00 0.00 0.00 50 1014.8
20260902015331 67 257 16.0 25.0 0.00 0.00 0.00 49 1014.8
20260902014834 67 257 18.0 25.0 0.00 0.00 0.00 48 1014.7
20260902014337 68 260 12.0 25.0 0.00 0.00 0.00 47 1014.8
20260902013840 68 269 19.0 25.0 0.00 0.00 0.00 46 1014.8
20260902013343 68 255 16.0 24.0 0.00 0.00 0.00 45 1014.9
20260902012349 69 263 17.0 25.0 0.00 0.00 0.00 44 1014.9
20260902011852 70 254 18.0 25.0 0.00 0.00 0.00 44 1014.9
20260902011355 70 257 19.0 29.0 0.00 0.00 0.00 44 1014.9
20260902010858 71 272 13.0 29.0 0.00 0.00 0.00 44 1015.2
20260902010401 71 267 18.0 29.0 0.00 0.00 0.00 43 1014.8
20260902005407 72 260 14.0 24.0 0.00 0.00 0.00 43 1015.8
20260902004910 72 265 17.0 24.0 0.00 0.00 0.00 43 1015.9
20260902004413 72 256 14.0 24.0 0.00 0.00 0.00 43 1015.8
20260902003916 72 265 17.0 26.0 0.00 0.00 0.00 43 1015.8
20260902003419 73 263 17.0 26.0 0.00 0.00 0.00 43 1015.7
20260902001928 73 265 15.0 27.0 0.00 0.00 0.00 43 1015.8
20260902001431 74 265 18.0 27.0 0.00 0.00 0.00 43 1015.8
20260902000437 74 268 16.0 24.0 0.00 0.00 0.00 43 1016.0
20260901235940 75 261 17.0 24.0 0.00 0.00 0.00 42 1016.0
20260901235443 75 275 12.0 24.0 0.00 0.00 0.00 42 1016.3
20260901234449 75 258 19.0 27.0 0.00 0.00 0.00 42 1016.2
20260901233952 75 258 15.0 24.0 0.00 0.00 0.00 43 1016.1
20260901233455 75 261 18.0 26.0 0.00 0.00 0.00 43 1016.0
20260901232958 75 255 17.0 26.0 0.00 0.00 0.00 43 1016.2
20260901230513 77 264 18.0 25.0 0.00 0.00 0.00 42 1016.4
20260901230016 77 270 15.0 24.0 0.00 0.00 0.00 42 1016.4
20260901225519 78 253 16.0 24.0 0.00 0.00 0.00 40 1016.4
20260901225022 78 263 13.0 26.0 0.00 0.00 0.00 41 1016.2
20260901224525 78 266 15.0 26.0 0.00 0.00 0.00 41 1016.3
20260901223531 78 262 15.0 26.0 0.00 0.00 0.00 38 1016.4
20260901223034 78 268 18.0 26.0 0.00 0.00 0.00 38 1016.4
20260901221543 79 275 12.0 23.0 0.00 0.00 0.00 38 1016.6
20260901221046 79 271 12.0 23.0 0.00 0.00 0.00 38 1016.6
20260901220549 78 261 12.0 26.0 0.00 0.00 0.00 39 1016.6
20260901220052 78 269 19.0 26.0 0.00 0.00 0.00 37 1016.6
20260901215058 78 279 14.0 26.0 0.00 0.00 0.00 37 1016.8
20260901213607 79 259 13.0 20.0 0.00 0.00 0.00 36 1016.9
20260901213110 78 257 13.0 24.0 0.00 0.00 0.00 36 1017.1
20260901212613 78 259 16.0 26.0 0.00 0.00 0.00 35 1017.2
20260901212116 78 257 17.0 26.0 0.00 0.00 0.00 35 1017.1
20260901211619 79 231 16.0 24.0 0.00 0.00 0.00 34 1017.2
20260901211122 79 247 18.0 24.0 0.00 0.00 0.00 34 1017.2
20260901210128 80 271 16.0 23.0 0.00 0.00 0.00 33 1017.3
20260901205631 80 227 12.0 21.0 0.00 0.00 0.00 33 1017.5
20260901205134 79 231 15.0 21.0 0.00 0.00 0.00 34 1017.4
20260901204637 79 278 11.0 23.0 0.00 0.00 0.00 33 1017.4
20260901203643 79 259 14.0 20.0 0.00 0.00 0.00 33 1017.5
20260901203146 79 257 11.0 20.0 0.00 0.00 0.00 33 1017.5
20260901202649 80 270 10.0 20.0 0.00 0.00 0.00 33 1017.7
20260901202152 80 236 10.0 20.0 0.00 0.00 0.00 34 1017.7
20260901201158 80 250 11.0 20.0 0.00 0.00 0.00 35 1017.8
20260901200701 79 249 11.0 21.0 0.00 0.00 0.00 34 1017.7
20260901200204 80 264 14.0 23.0 0.00 0.00 0.00 34 1017.6
20260901194713 79 253 11.0 21.0 0.00 0.00 0.00 35 1017.7
20260901194216 78 240 10.0 26.0 0.00 0.00 0.00 35 1017.0
20260901193719 78 256 14.0 26.0 0.00 0.00 0.00 33 1017.0
20260901193222 79 271 12.0 20.0 0.00 0.00 0.00 33 1016.9
20260901192228 79 235 11.0 21.0 0.00 0.00 0.00 32 1017.1
20260901191234 78 234 11.0 21.0 0.00 0.00 0.00 32 1017.2
20260901190737 77 238 11.0 21.0 0.00 0.00 0.00 31 1017.1
20260901190240 77 269 13.0 22.0 0.00 0.00 0.00 32 1017.2
20260901184749 77 261 12.0 22.0 0.00 0.00 0.00 31 1017.4
20260901184252 77 264 12.0 21.0 0.00 0.00 0.00 29 1017.5
20260901183755 77 227 14.0 22.0 0.00 0.00 0.00 30 1017.4
20260901183258 77 238 9.0 22.0 0.00 0.00 0.00 32 1017.4
20260901182801 77 232 11.0 25.0 0.00 0.00 0.00 29 1017.5
20260901182305 76 222 13.0 25.0 0.00 0.00 0.00 30 1017.6